[[{"header":{"parameterUnit":"m.s-1","parameterCategory":1,"la1":30.2991,"la2":30.254,"lo1":-89.0895,"lo2":-89.0444,"dy":0.0017,"dx":0.0017,"nx":28,"ny":28,"refTime":"2024-06-11T21:00:00:Z","depth":0,"parameterNumber":2,"parameterNumberName":"U-component_of_WINDS"},"data":[0,0,0,0,0,0,0,0,0,0,0,0,0,0,0,0,0,0,0,0,0,0,0,0,0,0,0,0,0,0,0,0,0,0,0,0,0,0,0,0,0,0,0,0,0,0,0,0,0,0,0,0,0,0,0,0,0,0,-1.4253,-1.4253,0,-1.4246,-1.4246,-1.4246,-1.4207,-1.4206,-1.4205,-1.4204,-1.4198,-1.4198,-1.4199,0,0,0,0,0,0,0,0,0,0,0,0,0,-1.4232,-1.4232,-1.4253,-1.4253,-1.4253,-1.4246,-1.4246,-1.4246,-1.4207,-1.4206,-1.4204,-1.4203,-1.4198,-1.4198,-1.4199,0,0,0,0,0,0,0,0,0,0,0,0,0,-1.4235,-1.4232,-1.4253,-1.4232,-1.423,-1.4246,-1.4246,-1.4246,-1.4207,-1.4206,-1.4204,-1.4203,-1.4197,-1.4198,-1.4199,-1.4235,0,0,-1.4203,-1.4203,0,0,0,0,0,0,0,0,-1.4234,-1.4235,-1.4235,-1.4234,-1.4232,-1.4226,-1.4236,-1.4242,-1.4207,-1.4216,-1.4204,-1.4202,-1.4208,-1.4208,-1.421,-1.4235,-1.4234,-1.4203,-1.4204,-1.4204,-1.4204,0,0,0,0,0,0,0,-1.4234,-1.4235,-1.425,-1.4235,-1.4233,-1.4223,-1.4222,-1.4237,-1.422,-1.4215,-1.4212,-1.4212,-1.4207,-1.4209,-1.421,-1.4234,-1.4203,-1.4204,-1.4204,-1.4205,-1.4288,-1.4289,0,0,0,0,0,0,-1.4237,-1.4236,-1.425,-1.425,-1.4229,-1.4225,-1.4224,-1.4229,-1.422,-1.4217,-1.4213,-1.421,-1.4208,-1.4209,-1.421,-1.4251,-1.4204,-1.4205,-1.4206,-1.4286,-1.4288,-1.429,0,0,0,0,0,0,-1.4237,-1.4239,-1.4251,-1.4242,-1.4243,-1.4227,-1.4233,-1.423,-1.4232,-1.4218,-1.4215,-1.4219,-1.4207,-1.4208,-1.4229,-1.425,-1.4205,-1.4206,-1.4284,-1.4287,-1.4289,-1.4334,0,0,0,0,0,0,-1.4236,-1.4239,-1.4252,-1.4243,-1.4243,-1.427,-1.4235,-1.4231,-1.4234,-1.423,-1.4223,-1.422,-1.4206,-1.4228,-1.423,-1.4251,-1.4207,-1.4282,-1.4285,-1.4288,-1.4331,-1.4338,-1.4344,0,0,0,0,0,-1.4236,-1.4265,-1.4253,-1.4255,-1.426,-1.4271,-1.4272,-1.4255,-1.4236,-1.4249,-1.424,-1.4221,-1.4247,-1.423,-1.4232,-1.4254,-1.4281,-1.4285,-1.4288,-1.4328,-1.4336,-1.4344,0,0,0,0,0,0,-1.4278,-1.4263,-1.425,-1.4277,-1.4276,-1.4265,-1.4281,-1.4264,-1.4268,-1.4265,-1.4243,-1.4242,-1.4266,-1.4262,-1.4243,-1.4288,-1.4261,-1.4265,-1.429,-1.4298,-1.4305,-1.4306,-1.4208,0,0,0,0,0,-1.429,-1.4301,-1.4288,-1.4313,-1.4313,-1.4297,-1.4302,-1.4289,-1.4286,-1.4286,-1.4279,-1.4277,-1.4286,-1.4291,-1.4298,-1.4329,-1.4328,-1.4346,-1.4352,-1.4358,-1.4362,-1.4379,-1.4387,-1.4301,-1.4301,-1.4301,0,0,-1.4316,-1.431,-1.4318,-1.4321,-1.4319,-1.4331,-1.4297,-1.4311,-1.432,-1.4288,-1.4308,-1.4302,-1.4299,-1.4326,-1.4337,-1.4323,-1.4385,-1.4362,-1.4366,-1.4368,-1.4383,-1.4391,-1.4399,-1.4303,-1.4303,-1.4303,0,0,-1.437,-1.4365,-1.4386,-1.4384,-1.4381,-1.437,-1.4375,-1.4367,-1.4362,-1.4381,-1.4358,-1.4367,-1.4382,-1.4381,-1.4383,-1.4436,-1.4418,-1.4438,-1.4473,-1.449,-1.4496,-1.4502,-1.4522,-1.453,-1.4442,-1.4442,-1.4442,0,-1.4403,-1.4419,-1.4399,-1.4415,-1.4418,-1.4389,-1.441,-1.4409,-1.4408,-1.4411,-1.4395,-1.4412,-1.4408,-1.4435,-1.4448,-1.4449,-1.4455,-1.444,-1.4497,-1.4503,-1.4508,-1.4527,-1.4534,-1.4445,-1.4445,-1.4444,-1.4444,0,-1.446,-1.4472,-1.449,-1.4489,-1.4494,-1.4512,-1.4495,-1.4502,-1.4488,-1.4479,-1.4499,-1.4493,-1.4499,-1.4504,-1.449,-1.4528,-1.452,-1.4501,-1.4473,-1.4519,-1.4536,-1.4543,-1.4449,-1.4448,-1.4447,-1.4446,0,0,-1.4542,-1.453,-1.4536,-1.4536,-1.453,-1.4539,-1.4556,-1.4561,-1.4567,-1.4567,-1.4582,-1.4594,-1.4577,-1.4578,-1.4564,-1.4579,-1.4623,-1.4558,-1.4558,-1.4571,-1.4665,-1.4681,-1.4689,-1.461,-1.4611,-1.4612,-1.4666,0,-1.4594,-1.4622,-1.4605,-1.4636,-1.4648,-1.462,-1.4635,-1.4633,-1.4625,-1.4633,-1.4624,-1.4634,-1.4609,-1.461,-1.4623,-1.4615,-1.4641,-1.461,-1.4624,-1.4625,-1.4627,-1.4698,-1.4714,-1.4765,-1.4672,-1.4673,-1.4674,0,-1.4659,-1.4662,-1.4695,-1.4686,-1.469,-1.4704,-1.4707,-1.4715,-1.4712,-1.4706,-1.4707,-1.469,-1.4706,-1.4678,-1.4701,-1.468,-1.4684,-1.4681,-1.4683,-1.4684,-1.4653,-1.4703,-1.4781,-1.4789,-1.4684,-1.4684,-1.4683,0,-1.4717,-1.4728,-1.4749,-1.475,-1.474,-1.4751,-1.4747,-1.4743,-1.4747,-1.475,-1.4752,-1.4757,-1.476,-1.4764,-1.4748,-1.4729,-1.4774,-1.4744,-1.4769,-1.477,-1.4781,-1.4781,-1.4862,-1.4782,-1.4782,-1.4781,-1.4781,0,-1.4778,-1.4799,-1.4775,-1.4789,-1.4812,-1.4791,-1.4814,-1.4808,-1.4804,-1.4816,-1.4792,-1.4804,-1.4781,-1.4791,-1.4779,-1.48,-1.4801,-1.4796,-1.4793,-1.4799,-1.48,-1.4803,-1.48,-1.4783,-1.4783,-1.4783,-1.4782,0,-1.4846,-1.4831,-1.4853,-1.4842,-1.4839,-1.4857,-1.4848,-1.486,-1.485,-1.4865,-1.4867,-1.4852,-1.4861,-1.4846,-1.4854,-1.4845,-1.4875,-1.4866,-1.4877,-1.4874,-1.4901,-1.4899,-1.4988,-1.4999,-1.4911,-1.4912,-1.4912,0,-1.4887,-1.4903,-1.4894,-1.49,-1.4898,-1.4908,-1.4912,-1.4892,-1.4897,-1.4895,-1.4907,-1.4915,-1.492,-1.4937,-1.4927,-1.4933,-1.4924,-1.4955,-1.4925,-1.4931,-1.4926,-1.4926,-1.4928,-1.4961,-1.4962,-1.4963,-1.4964,0,-1.4962,-1.4953,-1.496,-1.4964,-1.497,-1.4972,-1.4973,-1.4979,-1.4958,-1.4965,-1.4974,-1.4979,-1.4987,-1.4995,-1.4998,-1.4995,-1.4977,-1.4973,-1.498,-1.4987,-1.4993,-1.4991,-1.4895,-1.4972,-1.4971,-1.497,-1.497,-1.497,-1.5018,-1.5031,-1.5027,-1.5035,-1.5034,-1.5035,-1.5046,-1.5037,-1.5044,-1.5049,-1.5037,-1.5049,-1.5046,-1.5049,-1.5047,-1.5057,-1.5044,-1.5053,-1.5055,-1.5058,-1.5063,-1.499,-1.5058,-1.5057,-1.5057,-1.5057,-1.5057,0,-1.5093,-1.5088,-1.5096,-1.5098,-1.5104,-1.5085,-1.5085,-1.5092,-1.5104,-1.5102,-1.5107,-1.5119,-1.5126,-1.5116,-1.5122,-1.5132,-1.5124,-1.5135,-1.5135,-1.5134,-1.5074,-1.5069,-1.5141,-1.5141,-1.5141,-1.5141,-1.5141,-1.5141,-1.5132,-1.5154,-1.5145,-1.5165,-1.516,-1.5172,-1.5174,-1.5175,-1.5173,-1.5187,-1.5193,-1.5186,-1.5182,-1.5187,-1.5194,-1.519,-1.5194,-1.5208,-1.5203,-1.5147,-1.5139,-1.5131,-1.5125,-1.5209,-1.5209,-1.5262,-1.5262,-1.5263]},{"header":{"parameterUnit":"m.s-1","parameterCategory":1,"la1":30.2991,"la2":30.254,"lo1":-89.0895,"lo2":-89.0444,"dy":0.0017,"dx":0.0017,"nx":28,"ny":28,"refTime":"2024-06-11T21:00:00:Z","depth":0,"parameterNumber":3,"parameterNumberName":"V-component_of_WINDS"},"data":[0,0,0,0,0,0,0,0,0,0,0,0,0,0,0,0,0,0,0,0,0,0,0,0,0,0,0,0,0,0,0,0,0,0,0,0,0,0,0,0,0,0,0,0,0,0,0,0,0,0,0,0,0,0,0,0,0,0,-2.6981,-2.6981,0,-2.7009,-2.7009,-2.701,-2.6988,-2.6987,-2.6986,-2.6986,-2.7012,-2.7013,-2.7015,0,0,0,0,0,0,0,0,0,0,0,0,0,-2.6905,-2.6906,-2.6981,-2.6981,-2.6981,-2.7009,-2.7009,-2.701,-2.6988,-2.6987,-2.6986,-2.6985,-2.7011,-2.7013,-2.7015,0,0,0,0,0,0,0,0,0,0,0,0,0,-2.6936,-2.6907,-2.698,-2.6974,-2.6974,-2.7009,-2.7009,-2.701,-2.6989,-2.6987,-2.6986,-2.6985,-2.7011,-2.7013,-2.7015,-2.7057,0,0,-2.7022,-2.7023,0,0,0,0,0,0,0,0,-2.6934,-2.6939,-2.6975,-2.6975,-2.6974,-2.6994,-2.6992,-2.7026,-2.6989,-2.6983,-2.6986,-2.6984,-2.7007,-2.7009,-2.7018,-2.7059,-2.706,-2.7023,-2.7024,-2.7025,-2.7026,0,0,0,0,0,0,0,-2.6932,-2.6937,-2.6992,-2.6975,-2.6975,-2.6969,-2.6972,-2.6999,-2.7002,-2.6983,-2.6982,-2.6986,-2.7006,-2.7015,-2.7018,-2.706,-2.7023,-2.7025,-2.7026,-2.7027,-2.7138,-2.7139,0,0,0,0,0,0,-2.6931,-2.6936,-2.6991,-2.6993,-2.6951,-2.6971,-2.6975,-2.6989,-2.7002,-2.7003,-2.6987,-2.6985,-2.7012,-2.7015,-2.7019,-2.707,-2.7025,-2.7027,-2.7029,-2.7136,-2.7138,-2.714,0,0,0,0,0,0,-2.6929,-2.6936,-2.699,-2.6964,-2.697,-2.6974,-2.699,-2.699,-2.6999,-2.7005,-2.7005,-2.6996,-2.7011,-2.7016,-2.7048,-2.7071,-2.7028,-2.703,-2.7135,-2.7137,-2.7139,-2.7172,0,0,0,0,0,0,-2.6927,-2.6936,-2.6952,-2.6964,-2.6972,-2.702,-2.6992,-2.6992,-2.7004,-2.7001,-2.7013,-2.7013,-2.701,-2.7045,-2.7051,-2.7073,-2.7032,-2.7133,-2.7136,-2.7138,-2.7169,-2.7176,-2.7181,0,0,0,0,0,-2.6925,-2.696,-2.6953,-2.696,-2.6993,-2.7021,-2.7025,-2.7022,-2.7006,-2.7022,-2.7026,-2.7013,-2.7067,-2.7049,-2.7055,-2.7078,-2.7131,-2.7135,-2.7138,-2.7167,-2.7174,-2.7181,0,0,0,0,0,0,-2.6949,-2.6961,-2.6954,-2.6994,-2.7007,-2.7017,-2.7038,-2.703,-2.7046,-2.7043,-2.7037,-2.704,-2.7075,-2.7079,-2.7059,-2.712,-2.7097,-2.7101,-2.7116,-2.7123,-2.7129,-2.7128,-2.7034,0,0,0,0,0,-2.6959,-2.6982,-2.6991,-2.7025,-2.7032,-2.7034,-2.7046,-2.7043,-2.7055,-2.706,-2.7066,-2.7078,-2.7097,-2.711,-2.7128,-2.7169,-2.7172,-2.7189,-2.7194,-2.7199,-2.7204,-2.7227,-2.7235,-2.7151,-2.7151,-2.7151,0,0,-2.698,-2.6989,-2.7004,-2.703,-2.704,-2.7063,-2.7039,-2.7064,-2.7081,-2.7063,-2.7096,-2.71,-2.7113,-2.715,-2.7167,-2.7155,-2.7227,-2.7204,-2.7207,-2.7209,-2.7231,-2.7239,-2.7246,-2.7154,-2.7153,-2.7153,0,0,-2.7031,-2.704,-2.707,-2.708,-2.7095,-2.7097,-2.7104,-2.7116,-2.7119,-2.7151,-2.7138,-2.7158,-2.7192,-2.7202,-2.7211,-2.7266,-2.7255,-2.7272,-2.7302,-2.7325,-2.7331,-2.7337,-2.7358,-2.7365,-2.7276,-2.7276,-2.7276,0,-2.7054,-2.709,-2.7086,-2.7114,-2.7126,-2.7112,-2.7142,-2.7152,-2.7172,-2.718,-2.7167,-2.721,-2.7217,-2.7257,-2.7271,-2.7278,-2.7286,-2.7271,-2.7331,-2.7337,-2.7342,-2.7362,-2.7369,-2.7278,-2.7278,-2.7278,-2.7277,0,-2.712,-2.7144,-2.7167,-2.7188,-2.7202,-2.7231,-2.7231,-2.7246,-2.7241,-2.7243,-2.7276,-2.7285,-2.7305,-2.7314,-2.7308,-2.7353,-2.7346,-2.7332,-2.7308,-2.7352,-2.737,-2.7378,-2.7281,-2.728,-2.728,-2.7279,0,0,-2.7187,-2.7206,-2.7215,-2.7224,-2.724,-2.7259,-2.7286,-2.7307,-2.7321,-2.7334,-2.7358,-2.7387,-2.7374,-2.7385,-2.738,-2.74,-2.7444,-2.7383,-2.7384,-2.7396,-2.7495,-2.7507,-2.7516,-2.7437,-2.7438,-2.7439,-2.7495,0,-2.7239,-2.7289,-2.7287,-2.7333,-2.7357,-2.7344,-2.7368,-2.7379,-2.7382,-2.7402,-2.7404,-2.7425,-2.7406,-2.7413,-2.7432,-2.7435,-2.7464,-2.7431,-2.7459,-2.746,-2.7458,-2.7525,-2.7538,-2.759,-2.7502,-2.7503,-2.7504,0,-2.7307,-2.7325,-2.7375,-2.7388,-2.7397,-2.7419,-2.7439,-2.7458,-2.747,-2.7471,-2.7484,-2.7476,-2.7504,-2.7478,-2.7516,-2.7494,-2.7504,-2.7508,-2.751,-2.7513,-2.7486,-2.7532,-2.7606,-2.7614,-2.7515,-2.7514,-2.7513,0,-2.7353,-2.7389,-2.7424,-2.7433,-2.7448,-2.7464,-2.7471,-2.7483,-2.7496,-2.7512,-2.7521,-2.754,-2.755,-2.7565,-2.7562,-2.7544,-2.7601,-2.7576,-2.7603,-2.7603,-2.7617,-2.7616,-2.7695,-2.7621,-2.7621,-2.7621,-2.7621,0,-2.7413,-2.7444,-2.7445,-2.7467,-2.7501,-2.7497,-2.7531,-2.7536,-2.7546,-2.7568,-2.7557,-2.7577,-2.7572,-2.7592,-2.759,-2.7623,-2.7627,-2.7628,-2.7628,-2.763,-2.763,-2.7638,-2.7635,-2.7623,-2.7623,-2.7622,-2.7622,0,-2.7471,-2.7473,-2.751,-2.7522,-2.7526,-2.7551,-2.7561,-2.7581,-2.7582,-2.761,-2.7616,-2.7619,-2.7642,-2.7641,-2.7666,-2.7665,-2.7705,-2.7699,-2.7702,-2.7701,-2.7729,-2.7727,-2.7817,-2.7829,-2.7746,-2.7747,-2.7747,0,-2.7509,-2.7533,-2.7549,-2.7563,-2.7572,-2.7595,-2.7608,-2.7605,-2.762,-2.7637,-2.7655,-2.7677,-2.7695,-2.7732,-2.7736,-2.7755,-2.7751,-2.7781,-2.7754,-2.7756,-2.7753,-2.7752,-2.7755,-2.7787,-2.7788,-2.7789,-2.7789,0,-2.7578,-2.7579,-2.7599,-2.7621,-2.7638,-2.7655,-2.767,-2.7682,-2.768,-2.7697,-2.7721,-2.7735,-2.7762,-2.7784,-2.7803,-2.7809,-2.7799,-2.7798,-2.7805,-2.7809,-2.781,-2.7811,-2.7718,-2.7796,-2.7795,-2.7795,-2.7794,-2.7794,-2.7629,-2.765,-2.7665,-2.7688,-2.77,-2.7714,-2.7734,-2.7739,-2.7759,-2.7782,-2.7778,-2.7806,-2.7818,-2.7843,-2.7851,-2.7871,-2.7861,-2.7871,-2.7874,-2.7877,-2.7881,-2.7805,-2.7874,-2.7874,-2.7874,-2.7874,-2.7874,0,-2.7699,-2.7708,-2.773,-2.7752,-2.7771,-2.776,-2.7776,-2.7793,-2.7817,-2.783,-2.7848,-2.7876,-2.7898,-2.7904,-2.7924,-2.794,-2.7936,-2.7946,-2.7945,-2.7947,-2.7889,-2.7881,-2.7949,-2.7949,-2.7949,-2.7949,-2.7949,-2.7949,-2.7737,-2.7773,-2.7775,-2.7816,-2.7824,-2.7852,-2.7862,-2.7875,-2.7886,-2.7918,-2.7937,-2.7941,-2.7951,-2.7972,-2.7991,-2.7992,-2.8001,-2.8013,-2.8012,-2.7958,-2.7951,-2.7944,-2.7936,-2.8015,-2.8015,-2.8069,-2.8069,-2.807]}]]